Location: Peebles
(55.6412°N, 3.1714°W)
Time: 23:55:19
(UTC+01:00)

CENTAUR R/B - Pass Details

Date: 19 January 2022
Orbit: 716 x 1471 km, 63.4° (Epoch: 08 May)

Event Time Altitude Azimuth Distance (km) Brightness Sun altitude
Rises 17:08:40 0° 200° (SSW) 3,406 6.1 -6.6°
Reaches altitude 10° 17:11:03 10° 194° (SSW) 2,562 5.3 -6.9°
Maximum altitude 17:16:42 45° 123° (ESE) 1,349 3.1 -7.7°
Drops below altitude 10° 17:23:30 10° 54° (NE) 3,080 4.5 -8.5°
Enters shadow 17:23:44 - 54° (NE) 3,156 4.5 -8.6°
